[[{"header":{"parameterUnit":"m.s-1","parameterCategory":1,"la1":30.2991,"la2":30.254,"lo1":-89.0895,"lo2":-89.0444,"dy":0.0017,"dx":0.0017,"nx":28,"ny":28,"refTime":"2023-08-08T21:00:00:Z","depth":0,"parameterNumber":2,"parameterNumberName":"U-component_of_WINDS"},"data":[0,0,0,0,0,0,0,0,0,0,0,0,0,0,0,0,0,0,0,0,0,0,0,0,0,0,0,0,0,0,0,0,0,0,0,0,0,0,0,0,0,0,0,0,0,0,0,0,0,0,0,0,0,0,0,0,0,0,5.4447,5.4448,0,5.457,5.4571,5.4572,5.4496,5.4492,5.4488,5.4485,5.461,5.4617,5.4624,0,0,0,0,0,0,0,0,0,0,0,0,0,5.4142,5.4148,5.4446,5.4448,5.445,5.4569,5.4571,5.4573,5.4496,5.4492,5.4488,5.4483,5.4608,5.4616,5.4624,0,0,0,0,0,0,0,0,0,0,0,0,0,5.4271,5.415,5.4446,5.4426,5.4425,5.4569,5.4571,5.4573,5.4497,5.4492,5.4486,5.4481,5.4606,5.4615,5.4625,5.4796,0,0,5.4656,5.466,0,0,0,0,0,0,0,0,5.4263,5.4282,5.4427,5.4428,5.4427,5.4512,5.4509,5.4648,5.4499,5.447,5.4485,5.4479,5.4582,5.4594,5.4628,5.4801,5.4807,5.4657,5.4663,5.4667,5.467,0,0,0,0,0,0,0,5.4255,5.4276,5.4495,5.4429,5.4429,5.4409,5.4422,5.4535,5.4555,5.4472,5.4467,5.4482,5.4581,5.4619,5.4631,5.4809,5.4657,5.4665,5.4672,5.4676,5.5122,5.5128,0,0,0,0,0,0,5.4248,5.4269,5.4491,5.4499,5.433,5.4419,5.4433,5.449,5.4553,5.4558,5.4487,5.4478,5.4604,5.4619,5.4635,5.4834,5.4667,5.4677,5.4682,5.5116,5.5123,5.513,0,0,0,0,0,0,5.4241,5.4268,5.4486,5.4383,5.4409,5.443,5.4495,5.4495,5.4533,5.4565,5.4567,5.4523,5.4601,5.4621,5.4755,5.4838,5.4681,5.469,5.5109,5.5119,5.5127,5.5237,0,0,0,0,0,0,5.4233,5.4266,5.4332,5.4385,5.4415,5.4606,5.45,5.4502,5.4551,5.4541,5.4599,5.4603,5.4598,5.474,5.4765,5.4849,5.4698,5.5102,5.5113,5.5124,5.5226,5.5249,5.5268,0,0,0,0,0,5.4222,5.436,5.4336,5.4363,5.4498,5.4611,5.4628,5.4619,5.4558,5.4623,5.4643,5.4601,5.4826,5.4755,5.4782,5.487,5.5097,5.511,5.5123,5.5217,5.5245,5.5268,0,0,0,0,0,0,5.4317,5.4366,5.4341,5.4499,5.4551,5.4597,5.468,5.4649,5.472,5.4707,5.4694,5.4708,5.4847,5.4872,5.4793,5.5036,5.4951,5.497,5.5014,5.504,5.506,5.505,5.4706,0,0,0,0,0,5.4356,5.4445,5.4483,5.4619,5.4646,5.4659,5.4708,5.4696,5.475,5.4771,5.4801,5.4854,5.4935,5.4989,5.5067,5.5231,5.524,5.5304,5.5325,5.5342,5.5358,5.5441,5.5469,5.5173,5.5173,5.5172,0,0,5.4438,5.4476,5.4533,5.4639,5.4678,5.4767,5.4678,5.4778,5.4844,5.4787,5.4914,5.4937,5.4995,5.5143,5.521,5.5169,5.5442,5.5359,5.5372,5.5379,5.5458,5.5486,5.5511,5.5182,5.518,5.5179,0,0,5.4633,5.4672,5.4787,5.4828,5.4887,5.4894,5.4922,5.4973,5.4986,5.5114,5.5071,5.5149,5.5292,5.5333,5.5373,5.558,5.5543,5.5606,5.5713,5.5795,5.5818,5.5839,5.5909,5.5934,5.5622,5.5622,5.5622,0,5.4727,5.4861,5.4851,5.4953,5.4999,5.4951,5.5066,5.5106,5.5188,5.522,5.5173,5.5347,5.5383,5.5538,5.5588,5.5624,5.5652,5.5598,5.5816,5.5837,5.5856,5.5922,5.5949,5.5629,5.5628,5.5628,5.5627,0,5.4972,5.5066,5.5152,5.5231,5.5287,5.5395,5.5399,5.5457,5.544,5.5452,5.558,5.5621,5.5704,5.5741,5.5727,5.5893,5.5865,5.5818,5.5732,5.5891,5.5953,5.5978,5.5639,5.5637,5.5635,5.5633,0,0,5.5229,5.5299,5.5331,5.5364,5.5425,5.5497,5.5602,5.5682,5.573,5.5788,5.5873,5.5994,5.5949,5.5994,5.5984,5.6056,5.6212,5.5999,5.6,5.6034,5.6392,5.6425,5.6455,5.6189,5.6194,5.6198,5.6386,0,5.5424,5.5607,5.5599,5.5769,5.5853,5.5808,5.5898,5.5945,5.5958,5.603,5.6044,5.6128,5.6065,5.6091,5.6161,5.6178,5.6283,5.6165,5.6265,5.6268,5.6248,5.6488,5.6523,5.6699,5.6411,5.6415,5.6418,0,5.5676,5.574,5.5919,5.5963,5.5998,5.608,5.6151,5.6222,5.6272,5.6276,5.6326,5.6303,5.6406,5.632,5.646,5.638,5.6421,5.6435,5.6442,5.6448,5.635,5.6496,5.6756,5.6781,5.6457,5.6454,5.6451,0,5.584,5.5972,5.6095,5.6125,5.6182,5.624,5.6266,5.6311,5.6359,5.6421,5.645,5.6525,5.6564,5.6621,5.6617,5.6556,5.6758,5.6673,5.6762,5.6762,5.6804,5.6801,5.707,5.6837,5.6837,5.6836,5.6836,0,5.6056,5.6166,5.6168,5.6244,5.6364,5.6353,5.6472,5.6492,5.6533,5.6609,5.6575,5.6648,5.6641,5.6713,5.6711,5.6825,5.6845,5.6849,5.6846,5.685,5.6848,5.6873,5.6859,5.6843,5.6842,5.684,5.6839,0,5.6259,5.6266,5.6395,5.6438,5.6451,5.6537,5.6573,5.6643,5.6652,5.6749,5.6771,5.6786,5.6869,5.6872,5.6968,5.6967,5.7104,5.709,5.7087,5.7082,5.717,5.716,5.7461,5.7498,5.7245,5.7247,5.7249,0,5.6395,5.6478,5.6529,5.6577,5.6606,5.6686,5.6733,5.6725,5.6776,5.6838,5.6899,5.6979,5.7042,5.7176,5.7195,5.7267,5.7252,5.7352,5.7262,5.7262,5.7248,5.7241,5.7248,5.7369,5.7372,5.7374,5.7376,0,5.6634,5.6632,5.6702,5.6773,5.683,5.6886,5.6937,5.6979,5.6976,5.7035,5.7118,5.7167,5.7264,5.7342,5.7411,5.7436,5.7405,5.7404,5.7428,5.743,5.7423,5.7423,5.713,5.7397,5.7395,5.7393,5.7392,5.7391,5.6805,5.6874,5.692,5.6998,5.7035,5.7083,5.7149,5.7166,5.7236,5.7314,5.7305,5.7397,5.7442,5.7532,5.7563,5.7633,5.7598,5.7634,5.7642,5.765,5.7657,5.7415,5.7647,5.7646,5.7646,5.7645,5.7645,0,5.7038,5.7064,5.7136,5.7208,5.7268,5.7234,5.7288,5.7341,5.7422,5.7467,5.7529,5.7623,5.7698,5.7722,5.7794,5.7845,5.7832,5.7864,5.7858,5.7864,5.7687,5.7657,5.7873,5.7873,5.7873,5.7873,5.7873,5.7873,5.7166,5.7281,5.7284,5.7416,5.7441,5.7531,5.7564,5.7607,5.7642,5.7748,5.781,5.7825,5.786,5.7934,5.8,5.8005,5.8031,5.8068,5.8067,5.79,5.7877,5.7855,5.7827,5.8075,5.8075,5.8237,5.8239,5.824]},{"header":{"parameterUnit":"m.s-1","parameterCategory":1,"la1":30.2991,"la2":30.254,"lo1":-89.0895,"lo2":-89.0444,"dy":0.0017,"dx":0.0017,"nx":28,"ny":28,"refTime":"2023-08-08T21:00:00:Z","depth":0,"parameterNumber":3,"parameterNumberName":"V-component_of_WINDS"},"data":[0,0,0,0,0,0,0,0,0,0,0,0,0,0,0,0,0,0,0,0,0,0,0,0,0,0,0,0,0,0,0,0,0,0,0,0,0,0,0,0,0,0,0,0,0,0,0,0,0,0,0,0,0,0,0,0,0,0,2.8374,2.8374,0,2.8448,2.8449,2.845,2.8416,2.8414,2.8412,2.841,2.8486,2.8489,2.8493,0,0,0,0,0,0,0,0,0,0,0,0,0,2.8198,2.8202,2.8373,2.8374,2.8375,2.8448,2.8449,2.845,2.8416,2.8414,2.8412,2.841,2.8484,2.8489,2.8493,0,0,0,0,0,0,0,0,0,0,0,0,0,2.8274,2.8203,2.8373,2.8367,2.8367,2.8448,2.8449,2.8451,2.8417,2.8414,2.8411,2.8409,2.8483,2.8488,2.8494,2.8585,0,0,2.8511,2.8514,0,0,0,0,0,0,0,0,2.827,2.828,2.8367,2.8368,2.8368,2.842,2.8415,2.8495,2.8417,2.8398,2.841,2.8407,2.8466,2.8473,2.8493,2.8588,2.8591,2.8512,2.8515,2.8517,2.8519,0,0,0,0,0,0,0,2.8264,2.8277,2.8403,2.8368,2.8369,2.836,2.8367,2.843,2.8447,2.8399,2.8397,2.8407,2.8466,2.8488,2.8494,2.8592,2.8511,2.8516,2.852,2.8522,2.8764,2.8767,0,0,0,0,0,0,2.826,2.8273,2.8401,2.8405,2.8311,2.8365,2.8374,2.8406,2.8446,2.8449,2.8409,2.8405,2.8479,2.8488,2.8497,2.8605,2.8517,2.8523,2.8526,2.8761,2.8765,2.8768,0,0,0,0,0,0,2.8256,2.8271,2.8398,2.8338,2.8354,2.8371,2.8408,2.8409,2.8431,2.8453,2.8456,2.8428,2.8478,2.8489,2.8563,2.8607,2.8525,2.853,2.8757,2.8762,2.8766,2.8821,0,0,0,0,0,0,2.8251,2.827,2.8306,2.834,2.8357,2.8463,2.8411,2.8413,2.8441,2.8436,2.8472,2.8475,2.8476,2.8555,2.8568,2.8613,2.8535,2.8753,2.8759,2.8765,2.8816,2.8827,2.8837,0,0,0,0,0,2.8245,2.8318,2.8308,2.8323,2.8402,2.8466,2.8476,2.8476,2.8445,2.848,2.8494,2.8474,2.86,2.8562,2.8578,2.8625,2.8751,2.8758,2.8764,2.8811,2.8825,2.8837,0,0,0,0,0,0,2.8289,2.8323,2.8311,2.8398,2.8429,2.846,2.8504,2.8491,2.8532,2.8525,2.8523,2.8531,2.8607,2.8623,2.8581,2.8714,2.867,2.8681,2.8701,2.8714,2.8725,2.8719,2.8539,0,0,0,0,0,2.8308,2.8358,2.8385,2.8459,2.8475,2.8487,2.8515,2.8512,2.8544,2.8557,2.8577,2.8608,2.8655,2.8685,2.8729,2.8818,2.8824,2.8858,2.8868,2.8877,2.8886,2.8932,2.8947,2.879,2.879,2.879,0,0,2.835,2.8374,2.8406,2.8468,2.8492,2.8543,2.8499,2.8554,2.8592,2.8566,2.8636,2.8652,2.8687,2.8768,2.8804,2.8783,2.893,2.8886,2.8893,2.8897,2.8941,2.8956,2.8969,2.8795,2.8794,2.8794,0,0,2.8451,2.8475,2.8538,2.8563,2.86,2.8608,2.8623,2.8656,2.8665,2.8736,2.8717,2.8761,2.8841,2.8866,2.889,2.8999,2.8982,2.9013,2.9069,2.9115,2.9127,2.9138,2.9176,2.919,2.9022,2.9022,2.9022,0,2.8497,2.8574,2.8573,2.863,2.8657,2.8636,2.8699,2.8724,2.8773,2.8792,2.8767,2.8867,2.8889,2.8975,2.9002,2.9022,2.9038,2.9009,2.9126,2.9136,2.9147,2.9183,2.9197,2.9026,2.9025,2.9025,2.9024,0,2.8628,2.8682,2.8728,2.8776,2.8809,2.8869,2.8876,2.8909,2.8903,2.8913,2.8984,2.901,2.9058,2.9078,2.9073,2.9164,2.9149,2.9125,2.9082,2.9165,2.9199,2.9213,2.9031,2.9029,2.9028,2.9027,0,0,2.8759,2.8806,2.8823,2.8844,2.8883,2.8923,2.8982,2.9029,2.9057,2.9091,2.9139,2.9207,2.9185,2.9212,2.9209,2.9249,2.9332,2.922,2.9221,2.9239,2.9432,2.9449,2.9465,2.9322,2.9324,2.9326,2.9429,0,2.8862,2.8966,2.8966,2.9061,2.9109,2.9089,2.914,2.9168,2.9179,2.922,2.9231,2.9279,2.9247,2.9262,2.9301,2.9314,2.9371,2.9307,2.9365,2.9367,2.9357,2.9483,2.9502,2.9597,2.9442,2.9444,2.9446,0,2.8997,2.9035,2.9135,2.9166,2.9186,2.9232,2.9274,2.9315,2.9346,2.9351,2.938,2.9371,2.9429,2.9384,2.9464,2.942,2.9444,2.9454,2.9457,2.9462,2.9411,2.9491,2.9628,2.9642,2.9467,2.9465,2.9464,0,2.9081,2.9158,2.9227,2.9246,2.9284,2.9316,2.9333,2.9362,2.939,2.9427,2.9445,2.9489,2.9512,2.9545,2.9548,2.9515,2.9628,2.9583,2.9632,2.9632,2.9656,2.9655,2.9799,2.9673,2.9673,2.9673,2.9672,0,2.9196,2.9257,2.9266,2.9308,2.9376,2.9375,2.9442,2.9456,2.9481,2.9526,2.9511,2.9552,2.9553,2.9595,2.9598,2.9662,2.9673,2.9678,2.9678,2.9679,2.9678,2.9694,2.9687,2.9676,2.9675,2.9675,2.9674,0,2.9301,2.9309,2.9383,2.9413,2.9422,2.947,2.9495,2.9535,2.9543,2.9599,2.9612,2.9625,2.9674,2.968,2.9737,2.9738,2.9816,2.9809,2.9805,2.9804,2.9852,2.9847,3.0011,3.0032,2.9893,2.9895,2.9896,0,2.9373,2.942,2.9455,2.9483,2.9502,2.9549,2.9577,2.9578,2.9608,2.9646,2.9681,2.9729,2.9767,2.9845,2.9859,2.9902,2.9896,2.995,2.9902,2.9901,2.9895,2.9892,2.9896,2.9959,2.9961,2.9962,2.9963,0,2.95,2.9502,2.9544,2.9587,2.9622,2.9656,2.9688,2.9712,2.9716,2.975,2.98,2.983,2.9887,2.9934,2.9976,2.9992,2.9978,2.9978,2.9991,2.9993,2.9988,2.999,2.983,2.9974,2.9973,2.9972,2.9971,2.9971,2.9591,2.9631,2.9661,2.9708,2.9732,2.9762,2.9801,2.9814,2.9856,2.9903,2.9901,2.9955,2.9984,3.0039,3.0059,3.0101,3.0083,3.0102,3.0107,3.0112,3.0116,2.9982,3.0108,3.0108,3.0108,3.0108,3.0107,0,2.9716,2.9734,2.9778,2.9823,2.9859,2.9843,2.9877,2.9909,2.9957,2.9986,3.0023,3.008,3.0125,3.0142,3.0186,3.0216,3.021,3.0227,3.0225,3.0228,3.0131,3.0114,3.0231,3.0231,3.0231,3.0231,3.0231,3.0231,2.9786,2.9852,2.9857,2.9935,2.9953,3.0007,3.0027,3.0054,3.0077,3.0141,3.0179,3.019,3.0214,3.0259,3.0299,3.0303,3.0319,3.0339,3.034,3.0248,3.0235,3.0224,3.0208,3.0343,3.0343,3.0434,3.0435,3.0435]}]]